World > North America > United States > Texas > Canadian  

Canadian, TX Hourly Weather Updates

Feedback E-mail the Weather

Quick Clicks

Canadian, TX Weather Maps

°F °C°F °C
Canadian Weather Map
UTC Time: 6/14/2024, 15:44
Your Time:

Canadian, TX Regional Weather

Expires:202406141600;;006381
ASUS44 KSJT 141510
RWRSJT
WEST CENTRAL TEXAS REGIONAL WEATHER ROUNDUP
NATIONAL WEATHER SERVICE SAN ANGELO TX
1000 AM CDT FRI JUN 14 2024

NOTE: "FAIR" INDICATES FEW OR NO CLOUDS BELOW 12,000 FEET WITH NO
SIGNIFICANT WEATHER AND/OR OBSTRUCTIONS TO VISIBILITY.


TXZ001-004-007-008-010-012-014-016-OKZ002-141600-
TEXAS PANHANDLE/OKLAHOMA PANHANDLE
  
CITY           SKY/WX    TMP DP  RH WIND       PRES   REMARKS
AMARILLO       MOSUNNY   82  65  56 S9        30.09R TC  28           
BORGER         MOSUNNY   86  68  54 S7        30.07F TC  30           
CANADIAN       SUNNY     84  68  58 SE6       30.07S TC  29           
DALHART        PTSUNNY   82  64  54 MISG      30.09F TC  28           
DUMAS          PTSUNNY   76  65  66 S10       30.10S TC  25           
GUYMON         NOT AVBL                                               
HEREFORD       MOSUNNY   81  65  58 N15       30.11F TC  27           
PAMPA          SUNNY     85  67  54 S14       30.10F TC  29           
PERRYTON       PTSUNNY  N/A N/A N/A E12       30.09S                  
$$


SKY/WX - Weather  TMP - Temperature  DP - Dew Point  RH - Humidity
WIND - Wind Direction/Speed PRES - Barometric Pressure VSB - Visibility
WCI - Wind Chill Index E13G22 Wind - East Wind 13 mph/Gusts of 22 mph

Trending Headlines

Trending Entertainment Headlines

Canadian Radar Loop

Use the map search tool if you want to place a location marker on the radar map...

Canadian Quick Facts

National Two Day Weather Forecast


E-mail the Canadian Weather Forecast

Voice your opinion or tell us about page issues...